LRCV Weather Reports


time (UTC)temp
C
wind
direction
speed
KPH
gust
KPH
rain 1hr
cm
rain 24hr
cm
rain mn
cm
humidity
%
barometer
mb
20260506114841 23 170 12.9 0.0 0.00 0.00 0.00 47 1014.0
20260506113342 23 170 12.9 0.0 0.00 0.00 0.00 47 1014.0
20260506111841 23 170 11.3 0.0 0.00 0.00 0.00 50 1014.0
20260506110341 23 170 11.3 0.0 0.00 0.00 0.00 50 1014.0
20260506104841 22 150 11.3 0.0 0.00 0.00 0.00 57 1014.0
20260506103341 22 150 11.3 0.0 0.00 0.00 0.00 57 1014.0
20260506101842 22 150 9.7 0.0 0.00 0.00 0.00 50 1015.0
20260506100341 22 150 9.7 0.0 0.00 0.00 0.00 50 1015.0
20260506094841 22 110 9.7 0.0 0.00 0.00 0.00 57 1015.0
20260506093341 22 110 9.7 0.0 0.00 0.00 0.00 57 1015.0
20260506091841 21 130 9.7 0.0 0.00 0.00 0.00 57 1015.0
20260506090341 21 130 9.7 0.0 0.00 0.00 0.00 57 1015.0
20260506084841 20 130 8.0 0.0 0.00 0.00 0.00 60 1015.0
20260506083341 20 130 8.0 0.0 0.00 0.00 0.00 60 1015.0
20260506081838 18 150 9.7 0.0 0.00 0.00 0.00 60 1015.0
20260506080341 18 150 9.7 0.0 0.00 0.00 0.00 60 1015.0
20260506073341 17 140 8.0 0.0 0.00 0.00 0.00 64 1015.0
20260506071841 17 130 9.7 0.0 0.00 0.00 0.00 68 1015.0
20260506070341 17 130 9.7 0.0 0.00 0.00 0.00 68 1015.0
20260506061841 15 100 12.9 0.0 0.00 0.00 0.00 77 1015.0
20260506060343 15 100 12.9 0.0 0.00 0.00 0.00 77 1015.0
20260506050355 12 80 11.3 0.0 0.00 0.00 0.00 82 1014.0
20260506044857 12 80 8.0 0.0 0.00 0.00 0.00 88 1014.0
20260506043345 12 80 8.0 0.0 0.00 0.00 0.00 88 1014.0
20260506041842 10 90 11.3 0.0 0.00 0.00 0.00 88 1014.0
20260506040341 10 90 11.3 0.0 0.00 0.00 0.00 88 1014.0
20260506034842 8 80 11.3 0.0 0.00 0.00 0.00 94 1014.0
20260506033341 8 80 11.3 0.0 0.00 0.00 0.00 94 1014.0
20260506031841 7 70 11.3 0.0 0.00 0.00 0.00 93 1014.0
20260506030341 7 70 11.3 0.0 0.00 0.00 0.00 93 1014.0
20260506024841 8 60 8.0 0.0 0.00 0.00 0.00 94 1014.0
20260506023341 8 60 8.0 0.0 0.00 0.00 0.00 94 1014.0
20260506021841 10 40 9.7 0.0 0.00 0.00 0.00 88 1014.0
20260506020341 10 40 9.7 0.0 0.00 0.00 0.00 88 1014.0
20260506014841 10 30 11.3 0.0 0.00 0.00 0.00 88 1014.0
20260506013341 10 30 11.3 0.0 0.00 0.00 0.00 88 1014.0
20260506011842 10 20 8.0 0.0 0.00 0.00 0.00 94 1014.0
20260506010341 10 20 8.0 0.0 0.00 0.00 0.00 94 1014.0
20260506004841 10 60 9.7 0.0 0.00 0.00 0.00 94 1013.0
20260506003502 10 60 9.7 0.0 0.00 0.00 0.00 94 1013.0
20260506001842 11 40 9.7 0.0 0.00 0.00 0.00 88 1013.0
20260506000342 11 40 9.7 0.0 0.00 0.00 0.00 88 1013.0
20260505234841 11 70 9.7 0.0 0.00 0.00 0.00 88 1013.0
20260505233341 11 70 9.7 0.0 0.00 0.00 0.00 88 1013.0
20260505231841 11 70 11.3 0.0 0.00 0.00 0.00 88 1014.0
20260505230342 11 70 11.3 0.0 0.00 0.00 0.00 88 1014.0
20260505224842 12 70 9.7 0.0 0.00 0.00 0.00 82 1014.0
20260505223341 12 70 9.7 0.0 0.00 0.00 0.00 82 1014.0
20260505221839 12 110 9.7 0.0 0.00 0.00 0.00 82 1014.0
20260505220341 12 110 9.7 0.0 0.00 0.00 0.00 82 1014.0
20260505214842 12 90 8.0 0.0 0.00 0.00 0.00 82 1014.0
20260505213341 12 90 8.0 0.0 0.00 0.00 0.00 82 1014.0
20260505211841 15 300 4.8 0.0 0.00 0.00 0.00 63 1014.0
20260505210341 15 300 4.8 0.0 0.00 0.00 0.00 63 1014.0
20260505204843 16 160 8.0 0.0 0.00 0.00 0.00 59 1013.0
20260505203341 16 160 8.0 0.0 0.00 0.00 0.00 59 1013.0
20260505201912 16 160 9.7 0.0 0.00 0.00 0.00 59 1013.0
20260505200342 16 160 9.7 0.0 0.00 0.00 0.00 59 1013.0
20260505194841 17 180 9.7 0.0 0.00 0.00 0.00 56 1013.0
20260505193341 17 180 9.7 0.0 0.00 0.00 0.00 56 1013.0
20260505191841 17 180 8.0 0.0 0.00 0.00 0.00 52 1013.0
20260505190341 17 180 8.0 0.0 0.00 0.00 0.00 52 1013.0
20260505184842 18 180 4.8 0.0 0.00 0.00 0.00 49 1013.0
20260505183342 18 180 4.8 0.0 0.00 0.00 0.00 49 1013.0
20260505181842 21 210 8.0 0.0 0.00 0.00 0.00 40 1013.0
20260505180341 21 210 8.0 0.0 0.00 0.00 0.00 40 1013.0
20260505174839 22 230 8.0 0.0 0.00 0.00 0.00 36 1013.0
20260505173341 22 230 8.0 0.0 0.00 0.00 0.00 36 1013.0
20260505171841 22 230 9.7 0.0 0.00 0.00 0.00 33 1013.0
20260505170341 22 230 9.7 0.0 0.00 0.00 0.00 33 1013.0
20260505164841 23 230 12.9 0.0 0.00 0.00 0.00 31 1013.0
20260505163341 23 230 12.9 0.0 0.00 0.00 0.00 31 1013.0
20260505161842 25 230 12.9 0.0 0.00 0.00 0.00 28 1013.0
20260505160342 25 230 12.9 0.0 0.00 0.00 0.00 28 1013.0
20260505153341 25 240 14.5 0.0 0.00 0.00 0.00 30 1013.0
20260505151850 26 220 14.5 0.0 0.00 0.00 0.00 26 1013.0
20260505150342 26 220 14.5 0.0 0.00 0.00 0.00 26 1013.0
20260505140341 26 280 14.5 0.0 0.00 0.00 0.00 28 1013.0
20260505124841 25 8.0 0.0 0.00 0.00 0.00 32 1014.0
20260505123341 25 8.0 0.0 0.00 0.00 0.00 32 1014.0
20260505121841 26 220 11.3 0.0 0.00 0.00 0.00 28 1014.0
20260505120351 26 270 11.3 0.0 0.00 0.00 0.00 32 1015.0